TimeHST,TemperatureF,Dew PointF,Humidity,Sea Level PressureIn,VisibilityMPH,Wind Direction,Wind SpeedMPH,Gust SpeedMPH,PrecipitationIn,Events,Conditions,WindDirDegrees,DateUTC
12:16 AM,33.8,-14.8,12,29.58,10.0,NNW,3.5,-,N/A,,Overcast,340,2013-01-18 10:16:00
12:36 AM,33.8,-14.8,12,29.59,10.0,Calm,Calm,-,N/A,,Overcast,0,2013-01-18 10:36:00
12:56 AM,33.8,-14.8,12,29.59,10.0,Calm,Calm,-,N/A,,Scattered Clouds,0,2013-01-18 10:56:00
1:16 AM,30.2,-16.6,13,29.59,10.0,Calm,Calm,-,N/A,,Scattered Clouds,0,2013-01-18 11:16:00
1:36 AM,30.2,-16.6,13,29.59,10.0,Calm,Calm,-,N/A,,Partly Cloudy,0,2013-01-18 11:36:00
1:56 AM,30.2,-16.6,13,29.60,10.0,Calm,Calm,-,N/A,,Partly Cloudy,0,2013-01-18 11:56:00
2:16 AM,30.2,-16.6,13,29.60,10.0,Calm,Calm,-,N/A,,Mostly Cloudy,0,2013-01-18 12:16:00
2:36 AM,28.4,-18.4,12,29.60,10.0,Calm,Calm,-,N/A,,Scattered Clouds,0,2013-01-18 12:36:00
2:56 AM,28.4,-18.4,12,29.61,10.0,Calm,Calm,-,N/A,,Partly Cloudy,0,2013-01-18 12:56:00
3:16 AM,28.4,-18.4,12,29.61,10.0,Calm,Calm,-,N/A,,Partly Cloudy,0,2013-01-18 13:16:00
3:36 AM,28.4,-18.4,12,29.61,10.0,North,3.5,-,N/A,,Clear,350,2013-01-18 13:36:00
3:56 AM,28.4,-18.4,12,29.62,10.0,Calm,Calm,-,N/A,,Clear,0,2013-01-18 13:56:00
4:16 AM,28.4,-18.4,12,29.62,10.0,Calm,Calm,-,N/A,,Clear,0,2013-01-18 14:16:00
4:36 AM,28.4,-18.4,12,29.62,10.0,Calm,Calm,-,N/A,,Mostly Cloudy,0,2013-01-18 14:36:00
4:56 AM,28.4,-18.4,12,29.62,10.0,Calm,Calm,-,N/A,,Overcast,0,2013-01-18 14:56:00
5:16 AM,28.4,-18.4,12,29.63,8.0,Calm,Calm,-,N/A,,Mostly Cloudy,0,2013-01-18 15:16:00
5:36 AM,28.4,-18.4,12,29.63,10.0,Calm,Calm,-,N/A,,Mostly Cloudy,0,2013-01-18 15:36:00
5:56 AM,30.2,-16.6,13,29.63,10.0,Calm,Calm,-,N/A,,Mostly Cloudy,0,2013-01-18 15:56:00
6:16 AM,30.2,-16.6,13,29.63,10.0,Calm,Calm,-,N/A,,Overcast,0,2013-01-18 16:16:00
6:36 AM,30.2,-16.6,13,29.63,10.0,Calm,Calm,-,N/A,,Mostly Cloudy,0,2013-01-18 16:36:00
6:56 AM,28.4,-18.4,12,29.63,10.0,Calm,Calm,-,N/A,,Mostly Cloudy,0,2013-01-18 16:56:00
7:16 AM,28.4,-18.4,12,29.63,10.0,North,3.5,-,N/A,,Partly Cloudy,350,2013-01-18 17:16:00
7:36 AM,26.6,-18.4,13,29.63,10.0,Calm,Calm,-,N/A,,Clear,0,2013-01-18 17:36:00
7:56 AM,28.4,-18.4,12,29.64,10.0,Calm,Calm,-,N/A,,Mostly Cloudy,0,2013-01-18 17:56:00
8:16 AM,28.4,-18.4,12,29.64,10.0,North,3.5,-,N/A,,Scattered Clouds,360,2013-01-18 18:16:00
8:36 AM,28.4,-18.4,12,29.65,10.0,Calm,Calm,-,N/A,,Partly Cloudy,0,2013-01-18 18:36:00
8:56 AM,30.2,-16.6,13,29.65,10.0,WNW,4.6,-,N/A,,Partly Cloudy,290,2013-01-18 18:56:00
9:16 AM,30.2,-16.6,13,29.66,10.0,WNW,5.8,-,N/A,,Mostly Cloudy,290,2013-01-18 19:16:00
9:36 AM,32.0,-16.6,12,29.66,10.0,WNW,8.1,-,N/A,,Overcast,290,2013-01-18 19:36:00
9:56 AM,33.8,-14.8,12,29.66,10.0,West,11.5,-,N/A,,Mostly Cloudy,270,2013-01-18 19:56:00
10:16 AM,33.8,-14.8,12,29.67,10.0,WNW,6.9,-,N/A,,Overcast,290,2013-01-18 20:16:00
10:36 AM,35.6,-9999,N/A,29.67,10.0,WNW,9.2,-,N/A,,Overcast,290,2013-01-18 20:36:00
10:56 AM,35.6,-13.0,12,29.67,10.0,West,9.2,-,N/A,,Overcast,280,2013-01-18 20:56:00
11:16 AM,35.6,-13.0,12,29.67,10.0,WNW,8.1,-,N/A,,Overcast,300,2013-01-18 21:16:00
11:36 AM,35.6,-13.0,12,29.67,10.0,West,8.1,-,N/A,,Mostly Cloudy,280,2013-01-18 21:36:00
11:56 AM,35.6,-13.0,12,29.67,10.0,West,10.4,-,N/A,,Mostly Cloudy,280,2013-01-18 21:56:00
12:16 PM,37.4,-11.2,12,29.66,10.0,WNW,6.9,-,N/A,,Overcast,300,2013-01-18 22:16:00
12:36 PM,37.4,-11.2,12,29.65,10.0,WNW,8.1,-,N/A,,Overcast,300,2013-01-18 22:36:00
12:56 PM,37.4,-11.2,12,29.65,10.0,WNW,8.1,-,N/A,,Overcast,300,2013-01-18 22:56:00
1:16 PM,37.4,-11.2,12,29.64,10.0,WNW,8.1,-,N/A,,Overcast,290,2013-01-18 23:16:00
1:36 PM,37.4,-11.2,12,29.64,10.0,WNW,9.2,-,N/A,,Overcast,290,2013-01-18 23:36:00
1:56 PM,37.4,-11.2,12,29.63,10.0,West,11.5,-,N/A,,Overcast,280,2013-01-18 23:56:00
2:16 PM,37.4,-11.2,12,29.63,10.0,West,12.7,-,N/A,,Mostly Cloudy,280,2013-01-19 00:16:00
2:36 PM,37.4,-11.2,12,29.62,10.0,WNW,11.5,-,N/A,,Scattered Clouds,290,2013-01-19 00:36:00
2:56 PM,37.4,-11.2,12,29.62,10.0,West,9.2,-,N/A,,Partly Cloudy,280,2013-01-19 00:56:00
3:16 PM,39.2,-11.2,11,29.61,10.0,WNW,6.9,-,N/A,,Scattered Clouds,290,2013-01-19 01:16:00
3:36 PM,37.4,-11.2,12,29.61,10.0,West,5.8,-,N/A,,Mostly Cloudy,280,2013-01-19 01:36:00
3:56 PM,37.4,-11.2,12,29.61,10.0,West,4.6,-,N/A,,Overcast,260,2013-01-19 01:56:00
4:16 PM,37.4,-11.2,12,29.60,10.0,NW,3.5,-,N/A,,Overcast,310,2013-01-19 02:16:00
4:36 PM,35.6,-13.0,12,29.60,10.0,WNW,3.5,-,N/A,,Mostly Cloudy,300,2013-01-19 02:36:00
4:56 PM,35.6,-14.8,11,29.60,10.0,West,6.9,-,N/A,,Mostly Cloudy,280,2013-01-19 02:56:00
5:16 PM,35.6,-13.0,12,29.60,10.0,Calm,Calm,-,N/A,,Overcast,0,2013-01-19 03:16:00
5:36 PM,35.6,-13.0,12,29.59,10.0,Calm,Calm,-,N/A,,Overcast,0,2013-01-19 03:36:00
5:56 PM,35.6,-14.8,11,29.59,10.0,ESE,3.5,-,N/A,,Overcast,110,2013-01-19 03:56:00
6:16 PM,35.6,-14.8,11,29.59,10.0,Calm,Calm,-,N/A,,Overcast,0,2013-01-19 04:16:00
6:36 PM,33.8,-14.8,12,29.59,10.0,Calm,Calm,-,N/A,,Overcast,0,2013-01-19 04:36:00
6:56 PM,33.8,-14.8,12,29.58,10.0,Calm,Calm,-,N/A,,Overcast,0,2013-01-19 04:56:00
7:16 PM,33.8,-14.8,12,29.57,10.0,SW,3.5,-,N/A,,Overcast,220,2013-01-19 05:16:00
7:36 PM,33.8,-14.8,12,29.57,10.0,Calm,Calm,-,N/A,,Overcast,0,2013-01-19 05:36:00
7:56 PM,32.0,-16.6,12,29.57,10.0,Calm,Calm,-,N/A,,Mostly Cloudy,0,2013-01-19 05:56:00
8:16 PM,30.2,-16.6,13,29.57,10.0,NW,4.6,-,N/A,,Partly Cloudy,310,2013-01-19 06:16:00
8:36 PM,30.2,-16.6,13,29.55,10.0,NW,8.1,-,N/A,,Clear,310,2013-01-19 06:36:00
8:56 PM,30.2,-16.6,13,29.54,10.0,WNW,6.9,-,N/A,,Clear,290,2013-01-19 06:56:00
9:16 PM,30.2,-16.6,13,29.54,10.0,NNW,9.2,-,N/A,,Clear,330,2013-01-19 07:16:00
9:36 PM,30.2,-16.6,13,29.53,10.0,WNW,10.4,-,N/A,,Clear,290,2013-01-19 07:36:00
9:56 PM,30.2,-16.6,13,29.53,10.0,WNW,10.4,-,N/A,,Clear,300,2013-01-19 07:56:00
10:16 PM,30.2,-16.6,13,29.51,10.0,WNW,9.2,-,N/A,,Clear,300,2013-01-19 08:16:00
10:36 PM,30.2,-16.6,13,29.49,10.0,NW,10.4,-,N/A,,Clear,320,2013-01-19 08:36:00
10:56 PM,30.2,-16.6,13,29.49,10.0,WNW,9.2,-,N/A,,Clear,300,2013-01-19 08:56:00
11:16 PM,30.2,-16.6,13,29.48,10.0,WNW,9.2,-,N/A,,Clear,300,2013-01-19 09:16:00
11:36 PM,30.2,-16.6,13,29.46,10.0,NNW,10.4,-,N/A,,Clear,330,2013-01-19 09:36:00
11:56 PM,30.2,-16.6,13,29.45,10.0,NW,12.7,-,N/A,,Clear,320,2013-01-19 09:56:00